Regional Weather Roundup
Issued by NWS

Home | Current Version | Previous Version | Graphics & Text | Print | Product List | Glossary On
Versions: 1 2 3 4 5 6 7 8 9 10 11 12 13 14 15 16 17 18 19 20 21 22 23 24 25 26 27 28 29 30 31 32 33 34 35 36 37 38 39 40 41 42 43 44 45 46 47 48 49 50
779
ASUS45 KCYS 030910
RWRWY

WYOMING REGIONAL WEATHER ROUNDUP
NATIONAL WEATHER SERVICE CHEYENNE WY
300 AM MDT TUE MAY 03 2016

NOTE:  "FAIR" INDICATES FEW OR NO CLOUDS BELOW 12,000 FEET
WITH NO SIGNIFICANT WEATHER AND/OR OBSTRUCTIONS TO VISIBILITY.

WYZ001-031000-
YELLOWSTONE NATIONAL PARK

CITY           SKY/WX    TMP DP  RH WIND       PRES   REMARKS
LK YELLOWSTONE   N/A     27  22  81 CALM      30.32S
W YELLOWSTONE  NOT AVBL

$$
WYZ002>013-054>058-071-098>099-031000-
NORTHERN WYOMING

CITY           SKY/WX    TMP DP  RH WIND       PRES   REMARKS
JACKSON        FAIR      36  27  69 N3        30.27R
CODY           FAIR      46  30  53 S6        30.18S
GREYBULL       FAIR      44  30  57 SE6       30.14S
WORLAND        FAIR      43  34  70 S9        30.14S
SHERIDAN       FAIR      43  33  68 CALM      30.13F
BUFFALO          N/A    N/A N/A N/A MISG      30.16F
GILLETTE       FAIR      42  36  79 W10       30.12S
HULETT         FAIR      37  34  87 S8        30.11S WCI  31
NEWCASTLE      FAIR      39  32  75 N9        30.11S WCI  33

$$
WYZ014>020-022>026-101>103-031000-
CENTRAL WYOMING

CITY           SKY/WX    TMP DP  RH WIND       PRES   REMARKS
BIG PINEY      FAIR      29  18  63 N6        30.27S WCI  23
PINEDALE       FAIR      27  23  86 NW5       30.29R WCI  21
DUBOIS         FAIR      32  23  69 W10       30.28S WCI  24
LANDER         FAIR      40  28  62 SE3       30.20S
RIVERTON       FAIR      40  32  73 W8        30.20F WCI  34
CASPER         FAIR      34  30  85 W8        30.19S WCI  27
DOUGLAS        FAIR      38  32  79 N6        30.17S WCI  33

$$
WYZ021-027>030-104>119-031000-
SOUTHERN WYOMING

CITY           SKY/WX    TMP DP  RH WIND       PRES   REMARKS
EVANSTON       FAIR      38  24  57 SE7       30.27S WCI  33
KEMMERER         N/A     34  21  60 NW7       30.26S WCI  28
FORT BRIDGER   SUNNY     43  23  45 W10       30.28S
ROCK SPRINGS   FAIR      36  22  56 S5        30.25F WCI  32
DIXON          FAIR      32  22  67 E3        30.27R
RAWLINS        FAIR      30  24  78 W3        30.24S
SARATOGA       FAIR      28  23  80 SE3       30.25S
LARAMIE        FAIR      31  25  78 CALM      30.22S
CHEYENNE       FAIR      42  28  57 NW12      30.16S
TORRINGTON     FAIR      41  34  76 NW7       30.09S
PINE BLUFFS    FAIR      37  32  81 NW12      30.12F WCI  30

$$




USA.gov is the U.S. government's official web portal to all federal, state and local government web resources and services.